Prestonsburg, KY

2:55 PM EDT on April 25, 2017 (GMT -0400)
Prestonsburg

Weather History for KK22 - April, 2013

Change the Weather History Date:

Friday, April 19, 2013

  Actual Average (KJKL) Record (KJKL)
Temperature  
Mean Temperature 58 °F -  
Max Temperature 72 °F 66 °F 89 °F (2002)
Min Temperature 43 °F 46 °F 24 °F (1983)
Degree Days  
Heating Degree Days 8    
Growing Degree Days 8 (Base 50)    
Moisture  
Dew Point 46 °F    
Average Humidity 69    
Maximum Humidity 96    
Minimum Humidity 50    
Precipitation  
Precipitation 0.00 in - - ()
Sea Level Pressure  
Sea Level Pressure 29.79 in    
Wind  
Wind Speed 12 mph (WSW)    
Max Wind Speed 16 mph    
Max Gust Speed 26 mph    
Visibility 9 miles    
Events Rain    
Averages and records for this station are not official NWS values.
T = Trace of Precipitation, MM = Missing Value Source: NWS Daily Summary

Daily Weather History Graph

Daily Weather History Graph

Search for Another Location

Airport or City:

Trip Planner

Search our weather history database for the weather conditions in past years. The results will help you decide how hot, cold, wet, or windy it might be!

Date:

Astronomy

Apr. 19, 2013 Rise Set
Actual Time 6:49 AM EDT 8:10 PM EDT
Civil Twilight 6:22 AM EDT 8:37 PM EDT
Nautical Twilight 5:49 AM EDT 9:10 PM EDT
Astronomical Twilight 5:15 AM EDT 9:44 PM EDT
Moon 2:00 PM EDT (4/19) 2:57 AM EDT (4/19)
Length of Visible Light 14h 15m
Length of Day
13h 20m
First Quarter, 61% of the Moon is Illuminated
Apr 19
First Quarter
Apr 25
Full
May 2
Last Quarter
May 9
New
May 18
First Quarter

Hourly Weather History & Observations

Time (EDT) Temp. Windchill Dew Point Humidity Pressure Visibility Wind Dir Wind Speed Gust Speed Precip Events Conditions
12:15 AM 72.7 °F - 53.1 °F 50% 29.77 in 10.0 mi South 11.5 mph 21.9 mph N/A   Clear
12:35 AM 72.7 °F - 53.4 °F 51% 29.76 in 10.0 mi South 11.5 mph 21.9 mph N/A   Clear
12:55 AM 72.5 °F - 53.6 °F 51% 29.75 in 10.0 mi South 16.1 mph 20.7 mph N/A   Clear
1:15 AM 72.0 °F - 54.3 °F 54% 29.75 in 10.0 mi South 12.7 mph 20.7 mph N/A   Clear
1:35 AM 71.8 °F - 54.7 °F 55% 29.74 in 10.0 mi South 13.8 mph 20.7 mph N/A   Clear
1:55 AM 71.8 °F - 55.2 °F 56% 29.72 in 10.0 mi South 13.8 mph 18.4 mph N/A   Clear
2:15 AM 71.6 °F - 55.4 °F 57% 29.72 in 10.0 mi South 13.8 mph 19.6 mph N/A   Clear
2:35 AM 71.6 °F - 55.6 °F 57% 29.71 in 10.0 mi South 13.8 mph 19.6 mph N/A   Clear
2:55 AM 71.6 °F - 55.8 °F 57% 29.69 in 10.0 mi SSE 12.7 mph 18.4 mph N/A   Clear
3:15 AM 71.6 °F - 55.8 °F 57% 29.68 in 10.0 mi South 11.5 mph - N/A   Clear
3:35 AM 71.6 °F - 55.6 °F 57% 29.67 in 10.0 mi South 13.8 mph - N/A   Clear
3:55 AM 71.6 °F - 55.4 °F 57% 29.66 in 10.0 mi South 13.8 mph 19.6 mph N/A   Clear
4:15 AM 72.0 °F - 55.4 °F 56% 29.65 in 10.0 mi South 13.8 mph 20.7 mph N/A   Clear
4:35 AM 72.0 °F - 55.6 °F 56% 29.65 in 10.0 mi South 12.7 mph 20.7 mph N/A   Clear
4:55 AM 72.0 °F - 55.8 °F 57% 29.64 in 10.0 mi South 15.0 mph 20.7 mph N/A   Clear
5:15 AM 72.0 °F - 55.6 °F 56% 29.65 in 10.0 mi South 13.8 mph 18.4 mph N/A   Clear
5:35 AM 72.1 °F - 55.6 °F 56% 29.65 in 10.0 mi South 12.7 mph 21.9 mph N/A   Clear
5:55 AM 71.8 °F - 55.6 °F 57% 29.63 in 10.0 mi South 13.8 mph - N/A   Clear
6:15 AM 71.6 °F - 55.6 °F 57% 29.64 in 10.0 mi South 15.0 mph 20.7 mph N/A   Scattered Clouds
6:55 AM 71.6 °F - 55.8 °F 57% 29.63 in 10.0 mi South 12.7 mph 18.4 mph N/A   Overcast
7:15 AM 71.4 °F - 56.1 °F 58% 29.63 in 10.0 mi South 13.8 mph 18.4 mph N/A   Overcast
7:35 AM 71.1 °F - 56.3 °F 60% 29.63 in 10.0 mi South 15.0 mph 19.6 mph N/A   Light Drizzle
7:55 AM 70.0 °F - 57.6 °F 65% 29.64 in 10.0 mi SSW 15.0 mph - N/A Rain Light Rain
8:15 AM 68.5 °F - 58.5 °F 70% 29.63 in 10.0 mi SSW 10.4 mph - N/A Rain Rain
8:35 AM 67.1 °F - 59.4 °F 76% 29.63 in 10.0 mi South 10.4 mph - N/A Rain Light Rain
8:55 AM 66.6 °F - 59.9 °F 79% 29.63 in 10.0 mi South 13.8 mph 18.4 mph N/A Rain Light Rain
9:15 AM 66.4 °F - 60.1 °F 80% 29.65 in 10.0 mi SSW 15.0 mph 24.2 mph N/A Rain Light Rain
9:35 AM 64.8 °F - 60.8 °F 87% 29.68 in 5.0 mi WNW 8.1 mph 19.6 mph N/A Rain Heavy Rain
9:55 AM 60.3 °F - 58.6 °F 94% 29.69 in 3.0 mi WSW 10.4 mph 18.4 mph N/A Rain Rain
10:15 AM 57.6 °F - 55.8 °F 94% 29.70 in 7.0 mi West 13.8 mph 23.0 mph N/A Rain Light Rain
10:55 AM 53.4 °F - 50.5 °F 90% 29.72 in 10.0 mi WNW 10.4 mph 21.9 mph N/A Rain Light Rain
11:15 AM 51.6 °F - 49.5 °F 92% 29.75 in 2.0 mi West 9.2 mph 21.9 mph N/A Rain Heavy Rain
11:35 AM 50.4 °F - 48.6 °F 94% 29.76 in 7.0 mi West 13.8 mph 20.7 mph N/A   Drizzle
11:55 AM 49.8 °F - 48.2 °F 94% 29.77 in 7.0 mi West 12.7 mph 18.4 mph N/A Rain Rain
12:15 PM 48.7 °F - 46.6 °F 92% 29.78 in 5.0 mi West 10.4 mph 18.4 mph N/A Rain Light Rain
12:35 PM 48.0 °F - 46.0 °F 93% 29.79 in 7.0 mi WNW 10.4 mph 17.3 mph N/A   Overcast
12:55 PM 47.5 °F - 45.7 °F 93% 29.79 in 2.5 mi West 9.2 mph 20.7 mph N/A   Overcast
1:15 PM 47.3 °F - 45.5 °F 93% 29.80 in 3.0 mi West 12.7 mph 18.4 mph N/A   Overcast
1:35 PM 46.6 °F - 44.6 °F 93% 29.81 in 3.0 mi West 13.8 mph 24.2 mph N/A   Overcast
1:55 PM 45.9 °F 40.4 °F 44.2 °F 94% 29.84 in 3.0 mi West 11.5 mph 18.4 mph N/A   Overcast
2:15 PM 44.1 °F 38.1 °F 42.8 °F 95% 29.85 in 3.0 mi WNW 11.5 mph 20.7 mph N/A   Overcast
2:35 PM 43.9 °F 39.3 °F 42.8 °F 96% 29.85 in 7.0 mi West 8.1 mph 18.4 mph N/A   Overcast
2:55 PM 44.2 °F 39.7 °F 42.3 °F 93% 29.85 in 10.0 mi WNW 8.1 mph - N/A   Overcast
3:15 PM 44.6 °F 39.7 °F 42.1 °F 91% 29.87 in 10.0 mi West 9.2 mph - N/A   Overcast
3:35 PM 45.1 °F 42.8 °F 41.5 °F 87% 29.85 in 10.0 mi West 4.6 mph 16.1 mph N/A   Overcast
3:55 PM 46.2 °F 42.7 °F 41.9 °F 85% 29.87 in 10.0 mi West 6.9 mph - N/A   Overcast
4:15 PM 48.0 °F - 40.8 °F 76% 29.87 in 10.0 mi West 10.4 mph 20.7 mph N/A   Mostly Cloudy
4:35 PM 48.6 °F - 38.7 °F 69% 29.86 in 10.0 mi WSW 11.5 mph 26.5 mph N/A   Mostly Cloudy
4:55 PM 48.7 °F - 39.0 °F 69% 29.86 in 10.0 mi West 11.5 mph 21.9 mph N/A   Mostly Cloudy
5:15 PM 48.4 °F - 39.0 °F 70% 29.87 in 10.0 mi WSW 9.2 mph 19.6 mph N/A   Overcast
5:35 PM 50.4 °F - 37.9 °F 62% 29.88 in 10.0 mi WSW 10.4 mph 24.2 mph N/A   Mostly Cloudy
5:55 PM 49.1 °F - 37.6 °F 64% 29.87 in 10.0 mi WSW 10.4 mph - N/A   Overcast
6:15 PM 49.1 °F - 37.9 °F 65% 29.88 in 10.0 mi WSW 10.4 mph 16.1 mph N/A   Overcast
6:35 PM 49.1 °F - 37.6 °F 64% 29.88 in 10.0 mi West 9.2 mph - N/A   Mostly Cloudy
6:55 PM 49.1 °F - 36.0 °F 61% 29.88 in 10.0 mi WSW 8.1 mph - N/A   Scattered Clouds
7:15 PM 48.7 °F - 35.6 °F 60% 29.89 in 10.0 mi WSW 9.2 mph - N/A   Mostly Cloudy
7:35 PM 48.4 °F - 35.1 °F 60% 29.89 in 10.0 mi WSW 8.1 mph - N/A   Overcast
7:55 PM 48.2 °F - 35.4 °F 61% 29.90 in 10.0 mi WNW 8.1 mph - N/A   Overcast
8:15 PM 47.8 °F - 32.5 °F 55% 29.91 in 10.0 mi West 10.4 mph 16.1 mph N/A   Overcast
8:35 PM 47.5 °F - 33.6 °F 59% 29.93 in 10.0 mi WNW 8.1 mph 17.3 mph N/A   Overcast
8:55 PM 46.8 °F - 35.1 °F 64% 29.94 in 10.0 mi West 4.6 mph - N/A   Overcast
9:15 PM 46.4 °F 41.9 °F 34.3 °F 63% 29.95 in 10.0 mi WNW 9.2 mph - N/A   Overcast
9:35 PM 46.4 °F 41.9 °F 32.9 °F 59% 29.97 in 10.0 mi West 9.2 mph 18.4 mph N/A   Overcast
9:55 PM 45.9 °F 40.4 °F 32.2 °F 59% 29.97 in 10.0 mi West 11.5 mph 19.6 mph N/A   Overcast
10:15 PM 45.7 °F 41.5 °F 32.0 °F 59% 29.99 in 10.0 mi West 8.1 mph - N/A   Overcast
10:35 PM 45.5 °F 43.2 °F 32.2 °F 60% 30.00 in 10.0 mi West 4.6 mph - N/A   Overcast
10:55 PM 44.8 °F 40.4 °F 33.1 °F 64% 30.00 in 10.0 mi WNW 8.1 mph - N/A   Overcast
11:15 PM 44.8 °F 41.6 °F 32.9 °F 63% 30.01 in 10.0 mi WNW 5.8 mph - N/A   Overcast
11:35 PM 44.1 °F 37.4 °F 32.5 °F 64% 30.02 in 10.0 mi WNW 13.8 mph 19.6 mph N/A   Overcast
11:55 PM 43.7 °F 36.9 °F 31.6 °F 63% 30.04 in 10.0 mi West 13.8 mph 19.6 mph N/A   Overcast